[[{"header":{"parameterUnit":"m.s-1","parameterCategory":1,"la1":30.2991,"la2":30.254,"lo1":-89.0895,"lo2":-89.0444,"dy":0.0017,"dx":0.0017,"nx":28,"ny":28,"refTime":"2023-10-02T21:00:00:Z","depth":0,"parameterNumber":2,"parameterNumberName":"U-component_of_WINDS"},"data":[0,0,0,0,0,0,0,0,0,0,0,0,0,0,0,0,0,0,0,0,0,0,0,0,0,0,0,0,0,0,0,0,0,0,0,0,0,0,0,0,0,0,0,0,0,0,0,0,0,0,0,0,0,0,0,0,0,0,-5.2731,-5.2731,0,-5.2813,-5.2814,-5.2815,-5.273,-5.2727,-5.2724,-5.272,-5.2807,-5.2812,-5.2817,0,0,0,0,0,0,0,0,0,0,0,0,0,-5.2501,-5.2506,-5.273,-5.2731,-5.2733,-5.2813,-5.2814,-5.2815,-5.2731,-5.2727,-5.2723,-5.2719,-5.2805,-5.2811,-5.2818,0,0,0,0,0,0,0,0,0,0,0,0,0,-5.2594,-5.2507,-5.273,-5.27,-5.2698,-5.2813,-5.2814,-5.2816,-5.2732,-5.2727,-5.2722,-5.2717,-5.2803,-5.2811,-5.2819,-5.2968,0,0,-5.2843,-5.2847,0,0,0,0,0,0,0,0,-5.2589,-5.2603,-5.2703,-5.2702,-5.27,-5.2756,-5.2765,-5.2867,-5.2733,-5.2719,-5.272,-5.2715,-5.2794,-5.2802,-5.2829,-5.2972,-5.2975,-5.2844,-5.2849,-5.2852,-5.2855,0,0,0,0,0,0,0,-5.2583,-5.2599,-5.2763,-5.2705,-5.2703,-5.2683,-5.2691,-5.2784,-5.2783,-5.272,-5.2714,-5.2725,-5.2792,-5.2821,-5.283,-5.2977,-5.2844,-5.2851,-5.2856,-5.2859,-5.3248,-5.3253,0,0,0,0,0,0,-5.2579,-5.2594,-5.276,-5.2766,-5.2631,-5.2691,-5.27,-5.2743,-5.2782,-5.2783,-5.2729,-5.272,-5.281,-5.2821,-5.2833,-5.3012,-5.2852,-5.286,-5.2864,-5.3242,-5.3249,-5.3255,0,0,0,0,0,0,-5.2575,-5.2595,-5.2757,-5.2678,-5.2697,-5.27,-5.275,-5.2748,-5.2777,-5.2789,-5.2789,-5.2759,-5.2807,-5.2822,-5.2935,-5.3014,-5.2863,-5.2871,-5.3236,-5.3244,-5.3252,-5.337,0,0,0,0,0,0,-5.2569,-5.2594,-5.265,-5.268,-5.2702,-5.2858,-5.2755,-5.2753,-5.2791,-5.278,-5.2817,-5.2818,-5.2804,-5.2924,-5.2943,-5.3022,-5.2877,-5.3229,-5.324,-5.3249,-5.3359,-5.3381,-5.34,0,0,0,0,0,-5.2561,-5.268,-5.2653,-5.2674,-5.2772,-5.2862,-5.2875,-5.2856,-5.2797,-5.2854,-5.2862,-5.2817,-5.3001,-5.2936,-5.2957,-5.304,-5.3224,-5.3237,-5.3249,-5.335,-5.3377,-5.3399,0,0,0,0,0,0,-5.2659,-5.2683,-5.2654,-5.2786,-5.2823,-5.2848,-5.2919,-5.2884,-5.2939,-5.2927,-5.2901,-5.291,-5.3031,-5.3046,-5.2973,-5.3187,-5.3103,-5.3121,-5.3173,-5.3198,-5.3219,-5.3213,-5.2884,0,0,0,0,0,-5.2696,-5.2767,-5.2784,-5.2899,-5.2919,-5.2916,-5.2955,-5.2937,-5.2974,-5.2989,-5.3005,-5.3044,-5.311,-5.3155,-5.3217,-5.336,-5.3368,-5.3427,-5.3448,-5.3464,-5.348,-5.3559,-5.3587,-5.3296,-5.3295,-5.3295,0,0,-5.2773,-5.2795,-5.2841,-5.2919,-5.2946,-5.3021,-5.293,-5.3012,-5.3068,-5.3002,-5.311,-5.3124,-5.3165,-5.3295,-5.3352,-5.3311,-5.3562,-5.348,-5.3493,-5.35,-5.3575,-5.3603,-5.3627,-5.3304,-5.3302,-5.3301,0,0,-5.2953,-5.2976,-5.3075,-5.3104,-5.3144,-5.3142,-5.3166,-5.3196,-5.3203,-5.3311,-5.3264,-5.333,-5.3444,-5.3476,-5.3508,-5.3701,-5.3662,-5.3721,-5.3829,-5.3907,-5.393,-5.395,-5.4021,-5.4046,-5.3737,-5.3737,-5.3737,0,-5.3044,-5.3155,-5.3131,-5.3218,-5.3254,-5.3197,-5.3298,-5.3327,-5.3386,-5.3413,-5.3366,-5.351,-5.3533,-5.3671,-5.3718,-5.3744,-5.3772,-5.3718,-5.3928,-5.3948,-5.3967,-5.4034,-5.4061,-5.3744,-5.3743,-5.3743,-5.3742,0,-5.3266,-5.3343,-5.3419,-5.3478,-5.3522,-5.3616,-5.3607,-5.3655,-5.3634,-5.3637,-5.3749,-5.3775,-5.3842,-5.3873,-5.3852,-5.4008,-5.3982,-5.3932,-5.3848,-5.4002,-5.4065,-5.4091,-5.3754,-5.3752,-5.375,-5.3748,0,0,-5.351,-5.3555,-5.3584,-5.3611,-5.3652,-5.3712,-5.3803,-5.3869,-5.3912,-5.3954,-5.4032,-5.4131,-5.4085,-5.4121,-5.4103,-5.4171,-5.4325,-5.4113,-5.4114,-5.4154,-5.4501,-5.454,-5.4571,-5.4299,-5.4304,-5.4308,-5.4499,0,-5.3693,-5.3851,-5.3833,-5.3985,-5.4057,-5.4005,-5.4084,-5.4119,-5.4125,-5.4187,-5.4193,-5.4264,-5.4198,-5.4219,-5.4284,-5.4293,-5.4395,-5.4279,-5.4373,-5.4376,-5.4366,-5.4603,-5.4644,-5.4823,-5.4523,-5.4527,-5.453,0,-5.3927,-5.3979,-5.4138,-5.417,-5.42,-5.4272,-5.4331,-5.4391,-5.443,-5.4429,-5.447,-5.4441,-5.4534,-5.4447,-5.4576,-5.4497,-5.4534,-5.4545,-5.4551,-5.4561,-5.4464,-5.4621,-5.488,-5.4908,-5.4568,-5.4565,-5.4562,0,-5.4092,-5.4202,-5.4312,-5.4336,-5.4375,-5.4428,-5.4446,-5.448,-5.4521,-5.4573,-5.46,-5.4662,-5.4697,-5.4746,-5.4735,-5.4672,-5.4868,-5.4779,-5.4872,-5.4873,-5.4917,-5.4915,-5.5187,-5.4938,-5.4937,-5.4937,-5.4936,0,-5.4299,-5.4399,-5.4387,-5.4455,-5.4566,-5.4544,-5.4655,-5.4667,-5.4698,-5.4768,-5.4725,-5.4792,-5.4773,-5.4839,-5.4831,-5.4941,-5.4956,-5.496,-5.4957,-5.4965,-5.4965,-5.499,-5.4978,-5.4944,-5.4942,-5.4941,-5.494,0,-5.4503,-5.4499,-5.4615,-5.4643,-5.4652,-5.4734,-5.4757,-5.4822,-5.4824,-5.4913,-5.4933,-5.4937,-5.5013,-5.5006,-5.5092,-5.5087,-5.5223,-5.5204,-5.521,-5.5207,-5.5301,-5.5293,-5.5601,-5.5641,-5.5363,-5.5366,-5.5368,0,-5.4637,-5.4713,-5.4749,-5.4793,-5.4815,-5.4886,-5.4928,-5.491,-5.4955,-5.5006,-5.5065,-5.5137,-5.5194,-5.5319,-5.5329,-5.5395,-5.5379,-5.5482,-5.5389,-5.5395,-5.5383,-5.538,-5.5389,-5.5502,-5.5505,-5.5507,-5.5509,0,-5.4875,-5.4869,-5.4931,-5.4993,-5.5044,-5.5092,-5.5135,-5.5173,-5.5159,-5.5213,-5.529,-5.5334,-5.5422,-5.5495,-5.5558,-5.5578,-5.5543,-5.5538,-5.5564,-5.5574,-5.5575,-5.5578,-5.5263,-5.5532,-5.553,-5.5528,-5.5527,-5.5526,-5.5049,-5.5115,-5.5151,-5.5222,-5.5253,-5.5294,-5.5357,-5.5367,-5.5431,-5.5501,-5.5486,-5.5574,-5.5612,-5.5692,-5.5719,-5.5788,-5.5751,-5.5787,-5.5796,-5.5806,-5.5818,-5.5562,-5.5799,-5.5798,-5.5798,-5.5797,-5.5797,0,-5.5287,-5.5308,-5.5373,-5.5435,-5.5492,-5.5452,-5.5498,-5.5548,-5.5626,-5.5664,-5.5721,-5.5811,-5.5882,-5.5898,-5.5967,-5.6019,-5.6005,-5.6038,-5.6035,-5.6041,-5.5846,-5.5819,-5.6049,-5.6049,-5.6049,-5.6048,-5.6048,-5.6048,-5.5418,-5.5528,-5.5526,-5.5652,-5.5671,-5.5757,-5.5787,-5.5826,-5.5857,-5.5959,-5.6018,-5.6027,-5.6058,-5.6128,-5.6192,-5.6195,-5.6223,-5.6264,-5.6261,-5.6079,-5.6054,-5.603,-5.6004,-5.6269,-5.627,-5.645,-5.6451,-5.6453]},{"header":{"parameterUnit":"m.s-1","parameterCategory":1,"la1":30.2991,"la2":30.254,"lo1":-89.0895,"lo2":-89.0444,"dy":0.0017,"dx":0.0017,"nx":28,"ny":28,"refTime":"2023-10-02T21:00:00:Z","depth":0,"parameterNumber":3,"parameterNumberName":"V-component_of_WINDS"},"data":[0,0,0,0,0,0,0,0,0,0,0,0,0,0,0,0,0,0,0,0,0,0,0,0,0,0,0,0,0,0,0,0,0,0,0,0,0,0,0,0,0,0,0,0,0,0,0,0,0,0,0,0,0,0,0,0,0,0,-3.3286,-3.3286,0,-3.3261,-3.3261,-3.326,-3.3194,-3.3193,-3.3191,-3.319,-3.3165,-3.3166,-3.3167,0,0,0,0,0,0,0,0,0,0,0,0,0,-3.3278,-3.3278,-3.3286,-3.3286,-3.3286,-3.3261,-3.3261,-3.326,-3.3194,-3.3193,-3.3191,-3.3189,-3.3165,-3.3166,-3.3167,0,0,0,0,0,0,0,0,0,0,0,0,0,-3.327,-3.3278,-3.3286,-3.325,-3.3246,-3.3261,-3.3261,-3.326,-3.3195,-3.3193,-3.319,-3.3188,-3.3165,-3.3166,-3.3167,-3.3216,0,0,-3.317,-3.317,0,0,0,0,0,0,0,0,-3.327,-3.327,-3.3255,-3.3252,-3.3248,-3.3228,-3.3249,-3.3245,-3.3195,-3.3214,-3.319,-3.3187,-3.3188,-3.3187,-3.3187,-3.3214,-3.3213,-3.317,-3.3171,-3.3171,-3.3171,0,0,0,0,0,0,0,-3.3271,-3.3271,-3.3276,-3.3255,-3.3251,-3.3235,-3.3231,-3.3248,-3.3214,-3.3212,-3.3208,-3.3205,-3.3186,-3.3186,-3.3186,-3.3213,-3.317,-3.3171,-3.3171,-3.3172,-3.3279,-3.3281,0,0,0,0,0,0,-3.3277,-3.3272,-3.3277,-3.3275,-3.3254,-3.3237,-3.3233,-3.3237,-3.3213,-3.3207,-3.3207,-3.3202,-3.3186,-3.3185,-3.3185,-3.324,-3.3171,-3.3172,-3.3172,-3.3276,-3.3279,-3.3282,0,0,0,0,0,0,-3.3277,-3.3278,-3.3278,-3.3272,-3.3271,-3.3239,-3.3244,-3.3238,-3.3238,-3.3209,-3.3203,-3.3214,-3.3184,-3.3183,-3.3208,-3.3238,-3.3172,-3.3173,-3.3274,-3.3277,-3.328,-3.3352,0,0,0,0,0,0,-3.3277,-3.3278,-3.3297,-3.3273,-3.3272,-3.3302,-3.3246,-3.3239,-3.324,-3.3233,-3.3214,-3.3209,-3.3182,-3.3207,-3.3209,-3.3239,-3.3174,-3.3271,-3.3275,-3.3279,-3.3346,-3.3357,-3.3366,0,0,0,0,0,-3.3277,-3.3318,-3.3298,-3.3299,-3.3294,-3.3304,-3.3303,-3.3271,-3.3243,-3.3261,-3.3242,-3.3209,-3.3235,-3.321,-3.3212,-3.3242,-3.3269,-3.3274,-3.3279,-3.3342,-3.3355,-3.3366,0,0,0,0,0,0,-3.3346,-3.3314,-3.3292,-3.3326,-3.3318,-3.3293,-3.3315,-3.3286,-3.3286,-3.328,-3.3241,-3.3238,-3.3268,-3.3257,-3.3231,-3.3288,-3.3246,-3.3252,-3.3294,-3.3306,-3.3315,-3.3318,-3.3175,0,0,0,0,0,-3.3366,-3.3376,-3.3348,-3.3381,-3.3378,-3.3347,-3.3351,-3.3327,-3.3317,-3.3313,-3.3296,-3.3289,-3.3294,-3.3299,-3.3303,-3.3344,-3.3339,-3.3366,-3.3376,-3.3384,-3.3389,-3.341,-3.3421,-3.3298,-3.3298,-3.3298,0,0,-3.3406,-3.339,-3.3399,-3.3395,-3.3386,-3.3398,-3.3345,-3.336,-3.3369,-3.3316,-3.3338,-3.3325,-3.3314,-3.3347,-3.336,-3.3339,-3.3422,-3.339,-3.3397,-3.3398,-3.3416,-3.3428,-3.3438,-3.3301,-3.3301,-3.33,0,0,-3.3485,-3.3474,-3.3501,-3.3492,-3.3479,-3.3458,-3.3464,-3.3443,-3.3432,-3.3454,-3.3414,-3.3424,-3.3435,-3.3428,-3.3426,-3.3502,-3.3472,-3.3505,-3.3556,-3.3577,-3.3586,-3.3595,-3.3622,-3.3632,-3.351,-3.351,-3.351,0,-3.3537,-3.3554,-3.3518,-3.3535,-3.3535,-3.3487,-3.3513,-3.3507,-3.3496,-3.3497,-3.3472,-3.3485,-3.3474,-3.3505,-3.3523,-3.3523,-3.3529,-3.3507,-3.3588,-3.3596,-3.3603,-3.3629,-3.3639,-3.3514,-3.3514,-3.3513,-3.3513,0,-3.3618,-3.363,-3.3653,-3.3642,-3.3644,-3.3666,-3.3634,-3.364,-3.3616,-3.3598,-3.362,-3.3605,-3.3605,-3.361,-3.3587,-3.3637,-3.3624,-3.3595,-3.3552,-3.362,-3.3643,-3.3652,-3.352,-3.3519,-3.3517,-3.3516,0,0,-3.3742,-3.371,-3.372,-3.3714,-3.3695,-3.3704,-3.3723,-3.3723,-3.3729,-3.3722,-3.3738,-3.3748,-3.372,-3.3718,-3.3694,-3.3712,-3.3773,-3.3679,-3.3679,-3.3697,-3.3827,-3.385,-3.3862,-3.3752,-3.3754,-3.3755,-3.3828,0,-3.3816,-3.3848,-3.3816,-3.3854,-3.3864,-3.3818,-3.3835,-3.3826,-3.3809,-3.3815,-3.3796,-3.3804,-3.3767,-3.3765,-3.3781,-3.3762,-3.3798,-3.3756,-3.3767,-3.3767,-3.3771,-3.3874,-3.3898,-3.3968,-3.3837,-3.3838,-3.3839,0,-3.3908,-3.3906,-3.3945,-3.3923,-3.3926,-3.3942,-3.3938,-3.3945,-3.3933,-3.3919,-3.3916,-3.3886,-3.3904,-3.3862,-3.3886,-3.3858,-3.386,-3.3852,-3.3854,-3.3854,-3.3808,-3.3877,-3.3989,-3.4,-3.3853,-3.3852,-3.3851,0,-3.3995,-3.4001,-3.4025,-3.4021,-3.3996,-3.4008,-3.3999,-3.3984,-3.3986,-3.3983,-3.3983,-3.3983,-3.3982,-3.3983,-3.3953,-3.3925,-3.3981,-3.3937,-3.397,-3.3971,-3.3984,-3.3984,-3.4099,-3.3985,-3.3985,-3.3985,-3.3985,0,-3.4082,-3.4108,-3.4063,-3.4078,-3.4105,-3.4068,-3.4096,-3.4082,-3.4069,-3.408,-3.404,-3.4052,-3.4012,-3.4019,-3.3997,-3.402,-3.402,-3.4009,-3.4003,-3.4013,-3.4015,-3.4015,-3.4009,-3.3988,-3.3987,-3.3987,-3.3986,0,-3.4184,-3.4155,-3.4178,-3.4152,-3.4146,-3.4167,-3.4145,-3.4157,-3.4137,-3.4152,-3.4153,-3.4122,-3.4128,-3.4099,-3.41,-3.4085,-3.412,-3.4105,-3.4124,-3.4119,-3.4155,-3.4152,-3.4274,-3.4288,-3.4165,-3.4167,-3.4168,0,-3.4242,-3.426,-3.4236,-3.424,-3.4232,-3.424,-3.4241,-3.4205,-3.4207,-3.4195,-3.4209,-3.4212,-3.4212,-3.4225,-3.4202,-3.4203,-3.4188,-3.4231,-3.4188,-3.4198,-3.4189,-3.4189,-3.419,-3.424,-3.4241,-3.4243,-3.4244,0,-3.4348,-3.4332,-3.4335,-3.4332,-3.4334,-3.4331,-3.4325,-3.433,-3.4291,-3.4297,-3.4302,-3.4302,-3.4303,-3.4307,-3.4303,-3.4293,-3.4262,-3.4257,-3.4265,-3.4276,-3.4286,-3.4281,-3.4148,-3.4255,-3.4254,-3.4253,-3.4252,-3.4252,-3.4429,-3.4443,-3.4428,-3.4432,-3.4423,-3.4418,-3.4429,-3.441,-3.4414,-3.4411,-3.4389,-3.4399,-3.4386,-3.4377,-3.437,-3.4377,-3.4357,-3.4369,-3.4372,-3.4375,-3.4382,-3.4284,-3.4377,-3.4376,-3.4376,-3.4376,-3.4375,0,-3.4533,-3.4521,-3.4525,-3.4517,-3.452,-3.449,-3.4481,-3.4486,-3.4495,-3.4485,-3.4486,-3.4492,-3.4495,-3.4473,-3.4473,-3.4483,-3.4469,-3.4484,-3.4483,-3.4481,-3.4399,-3.4393,-3.4495,-3.4495,-3.4495,-3.4495,-3.4495,-3.4495,-3.4588,-3.461,-3.4592,-3.461,-3.4597,-3.4606,-3.4603,-3.4599,-3.459,-3.4599,-3.4601,-3.4586,-3.4571,-3.4569,-3.4571,-3.4564,-3.4566,-3.4586,-3.4575,-3.4499,-3.4487,-3.4476,-3.447,-3.4587,-3.4587,-3.4656,-3.4657,-3.4657]}]]